GFSNW_2pvu_pres_009.txt.gz
Presure
194 194 192 187 193 191 192 192 191 190 186 191 191 183 184 208 193 194 189 134 201 216 235 193 163 249 186 196 180 175 184 170 176 168 181 187 190 182 200 100 191 186 152 161
195 185 193 189 188 183 186 188 188 193 186 192 186 184 197 206 194 187 196 166 197 198 156 215 193 188 187 184 187 187 181 175 173 175 172 190 192 193 186 144 164 163 157 158
189 193 191 191 189 188 186 182 195 194 187 183 182 189 198 195 188 186 189 131 188 193 190 187 153 204 196 192 186 185 180 187 182 186 129 193 177 180 185 168 173 165 153 120
190 185 191 189 190 193 173 200 195 188 185 180 193 191 187 189 196 188 180 177 178 133 174 178 185 185 196 200 196 194 187 156 189 182 184 176 183 178 175 177 173 158 157 147
194 194 194 192 196 196 200 200 203 182 187 172 179 183 190 195 190 184 177 183 154 183 188 191 185 180 184 187 125 185 171 176 186 177 179 184 176 178 168 174 157 153 168 165
204 204 196 198 196 194 192 194 195 181 172 176 182 180 191 178 189 182 174 185 183 151 180 179 162 180 175 179 179 175 176 172 153 180 173 154 172 175 174 163 175 175 136 178
183 174 179 182 183 194 198 173 183 168 181 177 179 176 188 179 175 191 187 183 178 188 174 167 176 179 171 170 184 176 172 169 167 177 177 173 142 176 172 153 147 158 131 107
182 194 192 193 197 182 177 174 187 180 178 183 178 176 184 182 184 181 187 169 179 188 167 176 174 179 171 172 169 185 187 180 177 175 163 166 174 184 162 181 171 172 189 143
181 172 182 184 176 177 184 173 176 183 180 189 183 183 181 173 167 165 180 168 184 180 175 175 175 185 179 170 185 181 182 176 184 185 185 180 179 179 187 135 189 181 184 175
177 174 174 177 168 182 200 185 181 188 186 185 184 191 158 180 184 162 189 182 182 193 187 183 182 175 168 182 170 164 170 177 175 177 172 145 186 190 170 140 188 183 200 201
180 191 199 185 181 184 165 182 190 182 174 180 183 175 194 178 169 177 184 184 182 184 175 193 188 170 176 179 159 188 177 188 174 119 180 189 184 94 194 166 200 203 210 216
188 188 182 189 186 185 174 188 179 192 187 191 174 181 183 182 186 184 190 199 179 172 176 187 163 109 176 181 161 182 179 128 192 157 182 109 130 100 93 217 201 219 207 193
187 192 189 192 184 185 187 185 181 182 182 179 181 184 169 188 187 183 181 190 198 192 194 192 188 181 182 189 186 197 175 188 179 142 164 96 212 200 201 213 211 217 206 207
193 185 187 192 189 175 177 178 185 198 180 187 180 183 183 183 179 182 143 188 189 189 193 199 196 199 176 193 197 151 194 107 128 139 200 222 210 206 202 204 199 180 216 222
187 190 192 181 186 197 194 190 190 191 180 188 191 190 190 192 190 191 185 194 193 194 197 197 190 175 193 206 128 88 98 156 106 109 173 208 170 199 198 207 140 232 195 217
205 193 199 198 192 194 192 193 188 191 189 183 193 190 190 173 183 186 92 199 200 107 204 205 203 213 212 209 211 102 96 94 183 207 203 192 216 217 213 217 231 234 230 223
200 187 198 206 213 212 200 200 193 192 197 198 184 196 187 134 192 196 122 167 180 204 104 155 201 200 205 222 139 128 96 91 122 205 135 217 208 132 217 215 220 234 232 240
206 200 201 209 188 199 210 201 200 205 209 202 205 201 192 194 190 115 146 202 119 201 110 157 196 208 203 143 154 130 101 175 119 208 205 203 222 218 215 231 251 224 246 278
200 196 213 204 202 208 198 196 203 201 202 201 206 213 211 202 184 210 118 182 95 214 186 163 208 193 93 208 191 192 132 204 212 104 217 221 228 233 249 236 239 258 292 278
213 207 211 222 212 200 205 203 206 218 216 199 209 213 219 191 192 202 208 108 99 196 106 89 209 206 193 208 212 219 220 216 214 228 214 227 240 234 255 253 271 298 268 303
210 219 210 210 212 214 197 213 201 202 206 214 210 208 215 208 186 212 204 213 211 211 223 223 140 223 220 186 230 233 212 214 243 249 254 253 245 254 276 302 274 294 306 296
219 219 226 221 210 212 213 218 217 219 222 207 210 211 217 209 225 210 216 211 219 211 208 220 217 223 232 240 225 221 244 252 243 252 167 250 261 295 280 280 299 301 274 218
214 223 224 222 221 216 221 222 222 223 221 236 229 224 222 218 222 219 219 225 222 219 221 225 235 130 244 252 265 247 238 239 255 267 259 278 298 288 298 323 279 285 297 388
218 218 227 232 220 224 229 228 239 228 205 215 228 235 218 217 225 232 238 221 219 234 241 248 239 235 227 258 259 268 268 266 268 268 296 308 309 328 287 284 310 391 387 383
228 235 216 217 215 226 226 223 228 226 243 241 237 238 238 233 233 237 219 242 246 239 249 257 259 271 275 277 272 269 265 267 278 306 334 321 281 288 367 399 389 390 393 384
240 241 243 250 244 235 239 239 231 242 243 253 251 249 251 256 257 256 250 254 262 261 265 263 257 262 257 265 268 277 307 305 319 320 282 294 408 405 408 402 391 382 377 373
255 241 238 244 243 254 254 256 268 254 261 254 262 259 262 259 258 243 250 257 266 266 270 275 275 261 275 299 324 320 327 279 282 397 410 416 415 409 402 393 380 367 367 372

GFSNW_2pvu_pres_015.txt.gz
Presure
211 192 193 211 213 205 192 191 191 191 189 200 196 189 186 188 190 196 193 214 200 195 199 199 198 215 218 170 193 194 201 191 191 184 183 181 177 179 188 193 183 188 184 179
197 199 199 225 149 197 191 190 187 185 192 197 196 182 189 190 189 193 186 210 199 191 189 197 189 190 196 172 203 206 170 195 187 190 188 191 195 195 185 180 181 169 175 175
204 199 218 214 202 190 199 186 188 192 191 192 195 187 189 189 188 191 188 197 201 189 189 189 187 184 177 189 189 184 188 190 193 192 192 163 184 181 178 169 168 166 171 169
207 217 216 201 193 189 191 187 187 189 195 194 192 187 189 189 188 186 183 183 187 202 186 193 182 184 186 190 195 187 170 183 187 169 177 146 176 175 173 179 186 185 177 176
216 213 197 194 188 184 189 181 179 186 197 190 197 180 187 187 190 191 185 194 185 189 189 194 187 186 179 185 180 177 173 175 178 177 186 184 181 185 183 178 187 178 175 171
203 194 188 189 195 193 182 190 191 192 196 196 189 186 189 176 193 186 182 182 178 193 193 189 190 193 184 174 183 197 185 178 179 176 186 183 184 187 190 174 184 176 172 148
190 184 191 193 191 194 191 186 188 195 197 191 190 190 194 193 199 188 187 187 174 179 180 185 175 182 182 159 183 169 177 184 195 179 180 177 185 181 167 167 168 176 187 190
193 192 195 186 196 198 191 200 202 195 193 191 197 200 206 202 193 198 185 184 185 189 185 181 182 187 186 176 174 181 185 175 180 178 175 179 182 172 185 179 177 181 129 204
203 195 196 195 186 193 182 181 184 185 189 192 193 189 189 194 187 194 198 190 191 191 188 183 184 183 187 181 189 186 184 179 178 175 179 178 161 187 106 181 78 145 163 192
207 203 201 202 196 194 197 198 203 198 197 205 200 191 188 193 181 181 191 193 191 185 196 198 194 179 180 166 172 169 169 171 175 177 179 182 186 151 85 169 191 158 128 200
170 176 184 188 196 204 200 194 187 171 184 174 180 197 199 197 196 195 184 187 185 190 183 181 183 163 180 183 178 176 172 172 175 182 184 186 188 147 195 165 93 185 153 125
174 189 184 194 192 192 188 181 193 174 181 199 206 164 217 197 193 170 169 181 184 182 170 167 177 192 175 178 182 188 190 179 184 193 160 159 119 181 149 138 197 212 199 125
187 173 194 184 166 188 184 188 195 164 190 191 174 229 187 170 178 188 185 181 168 180 188 192 158 187 188 187 188 188 178 185 181 142 130 106 193 212 135 132 91 213 149 183
180 181 182 197 189 174 169 170 200 175 197 192 198 188 192 193 182 191 189 184 188 177 179 189 188 181 187 187 191 140 170 191 203 153 103 137 151 205 211 190 102 213 207 213
197 190 173 177 207 175 175 214 186 186 187 180 187 188 188 181 187 184 186 189 184 158 186 187 190 190 191 190 198 202 196 179 149 172 89 210 196 208 206 210 207 208 204 214
186 185 193 205 188 198 198 188 192 176 180 186 194 178 178 182 188 188 189 187 183 110 191 188 191 192 199 197 205 106 86 87 220 202 160 167 205 209 219 210 210 223 232 228
193 186 194 189 184 186 182 183 181 190 191 190 186 181 179 182 190 134 192 196 199 201 197 194 202 201 214 201 202 96 179 203 207 217 209 201 202 207 203 210 214 222 225 214
189 197 195 194 192 203 198 201 196 196 198 203 168 195 189 190 193 197 196 200 202 199 199 190 201 201 203 206 198 141 202 177 207 203 217 207 208 200 210 224 223 214 216 225
193 190 212 200 202 198 192 195 191 195 186 186 198 194 195 209 205 187 207 212 192 215 214 203 198 200 198 198 204 207 207 207 208 216 219 215 210 213 224 213 214 231 223 264
203 210 202 211 212 181 205 204 203 207 207 201 207 195 195 197 203 210 200 200 201 200 207 192 203 198 200 208 210 209 212 218 217 221 216 214 224 217 223 225 225 264 260 290
208 209 211 210 206 206 211 207 212 207 211 209 205 204 198 203 207 199 205 215 214 205 198 197 204 203 203 211 216 216 218 225 224 223 218 228 224 224 232 249 249 272 273 307
213 219 217 214 210 212 216 209 203 206 208 203 208 221 218 202 205 210 220 222 219 218 220 207 214 218 214 213 221 221 219 210 220 220 224 233 229 242 252 272 288 316 325 328
187 197 211 207 220 192 218 205 205 210 223 223 211 211 214 213 223 222 215 216 213 223 226 229 236 248 240 234 245 222 222 232 242 247 244 236 238 269 276 332 324 324 335 287
237 238 228 236 218 224 231 204 218 215 217 194 203 211 217 218 222 231 232 218 207 236 231 233 222 223 233 224 234 227 238 244 244 238 237 255 278 327 328 314 337 311 297 425
228 229 224 220 221 225 227 217 210 170 226 224 221 222 211 209 223 208 206 199 232 225 224 227 230 229 236 235 241 246 247 251 244 257 268 322 336 342 336 291 333 432 427 417
236 239 235 236 245 243 242 237 238 236 233 235 239 239 238 220 213 248 238 239 247 249 254 256 249 246 245 253 253 259 260 265 299 336 336 338 326 288 292 436 419 407 397 429
251 261 273 247 249 251 235 246 238 245 240 237 241 236 250 252 260 255 263 277 253 244 243 321 323 323 292 318 322 317 330 329 336 336 324 281 287 427 420 409 392 400 416 391

GFSNW_2pvu_pres_021.txt.gz
Presure
198 188 197 194 191 199 202 202 205 202 203 199 197 198 193 196 193 200 195 183 186 193 194 196 213 199 202 193 197 195 189 194 186 205 204 201 187 173 186 183 179 177 177 179
193 202 195 193 194 192 198 192 199 204 204 196 197 196 192 193 186 200 195 186 193 194 193 193 208 201 197 197 190 193 187 186 185 185 184 184 189 197 176 180 179 178 169 178
205 189 202 203 197 194 197 186 196 215 210 201 195 198 191 194 190 195 198 184 188 192 191 193 190 189 187 192 193 195 195 194 188 175 192 185 194 168 177 173 175 173 173 169
205 199 203 198 201 195 190 200 192 210 213 204 192 194 192 182 187 196 196 191 187 192 189 189 191 192 189 197 186 200 201 196 182 183 187 179 177 178 190 184 184 190 131 174
213 208 195 196 208 203 192 198 196 206 213 200 199 189 193 186 190 197 192 195 190 190 188 186 187 193 193 188 183 187 178 179 178 183 180 186 186 197 188 174 173 169 174 176
209 198 206 202 204 202 203 196 194 197 215 204 202 192 190 186 188 189 196 190 193 187 185 190 182 179 196 191 190 188 188 183 180 181 184 189 189 179 176 185 179 172 182 179
206 203 202 207 191 203 201 198 191 192 201 214 208 193 202 183 179 185 191 194 194 189 190 183 195 191 202 196 197 198 190 192 190 186 193 179 185 179 178 181 176 189 188 184
210 209 205 204 201 195 196 196 199 199 199 217 211 188 189 185 188 190 187 190 191 192 194 188 192 202 200 199 192 198 210 177 187 182 172 176 178 172 193 166 184 181 186 197
207 211 206 204 203 203 198 198 203 200 205 218 210 188 186 181 195 191 189 199 197 188 189 191 187 186 188 197 193 204 196 183 180 190 176 172 188 186 188 182 116 187 185 89
214 218 213 205 222 238 213 200 198 200 209 210 191 188 190 194 195 195 203 202 192 196 187 207 199 192 201 200 199 171 175 186 189 185 186 196 193 178 184 191 186 194 93 101
199 187 212 196 205 221 212 212 201 201 207 191 191 197 195 190 196 194 182 186 174 175 180 179 191 182 183 185 170 170 176 174 190 186 190 188 187 187 195 150 201 207 106 168
197 190 196 206 198 197 225 213 211 214 209 188 187 190 191 194 191 190 197 197 209 173 178 184 169 183 186 181 187 192 170 186 182 188 192 199 187 205 201 191 196 178 191 197
189 203 176 199 180 222 202 197 195 195 193 191 188 192 196 199 200 199 192 191 175 200 210 193 200 205 193 190 178 184 186 127 101 179 89 197 192 189 191 146 189 200 210 211
186 190 197 200 197 200 206 222 207 198 197 202 201 194 198 202 201 202 181 202 195 199 173 182 193 190 191 193 184 178 193 198 156 198 192 168 205 192 114 102 197 153 202 207
193 195 184 185 199 193 190 203 201 199 203 180 200 170 193 191 189 184 190 178 172 177 183 180 184 187 182 181 190 195 193 189 195 190 192 195 197 203 191 196 201 208 203 215
183 195 170 180 189 192 192 180 182 182 187 184 192 171 177 179 170 175 179 183 181 179 185 193 182 179 190 200 184 178 198 196 198 207 203 197 193 200 200 199 204 204 213 212
201 194 192 194 197 200 185 191 179 187 194 192 193 195 183 187 188 172 178 182 196 195 191 180 190 197 197 186 186 192 205 202 199 201 198 197 198 201 205 214 199 216 214 239
206 199 194 197 198 195 181 187 185 193 193 185 190 144 189 190 194 192 192 194 197 197 197 200 199 189 191 196 205 200 200 204 207 203 194 199 204 201 222 228 232 219 254 251
197 210 210 198 200 190 194 197 195 195 195 200 171 164 171 187 196 192 197 199 196 197 186 185 194 204 200 199 198 200 205 205 191 197 208 209 222 220 227 241 222 254 246 293
213 200 202 211 204 203 201 199 202 195 203 169 201 197 198 190 193 199 199 205 204 185 187 197 199 201 200 206 201 193 192 198 213 220 220 214 213 232 231 254 272 279 285 261
213 212 214 197 203 199 204 209 209 209 209 207 198 199 206 201 197 200 203 200 204 204 208 212 208 192 203 206 203 205 202 208 219 231 241 233 251 259 273 295 311 261 347 291
205 203 200 215 212 213 206 204 207 204 197 190 198 206 209 206 194 195 205 199 197 196 204 204 191 210 212 198 203 216 219 221 242 224 243 248 260 275 307 315 331 271 270 277
218 215 207 213 217 216 224 220 214 209 214 212 205 206 210 211 212 207 207 208 212 215 207 210 204 214 213 216 226 212 243 229 236 252 265 261 260 272 278 275 268 284 281 282
225 214 211 214 216 208 208 208 211 212 219 217 215 220 221 214 217 218 209 203 229 226 219 224 225 228 234 223 241 244 249 246 257 254 256 258 270 280 298 289 281 294 304 308
236 226 227 226 222 226 225 226 218 217 212 221 227 159 217 219 227 226 226 229 234 226 226 230 231 218 233 238 259 235 186 264 253 254 247 266 288 305 296 294 301 313 341 435
235 208 218 236 235 227 227 222 221 228 230 182 230 214 227 234 227 213 241 235 251 244 242 248 252 221 260 246 230 266 275 245 249 262 269 291 311 312 317 316 335 401 425 406
248 256 254 233 219 201 220 227 225 221 221 237 240 222 243 249 235 230 237 246 239 243 256 247 235 254 270 277 270 264 256 259 266 282 321 321 327 328 351 340 427 414 394 428

GFSNW_2pvu_pres_027.txt.gz
Presure
218 127 198 206 204 192 194 183 198 194 195 223 215 211 203 202 194 193 191 192 196 193 192 191 186 201 211 200 201 196 198 195 193 194 192 196 193 192 186 190 186 187 199 194
213 199 185 137 197 194 185 196 191 189 188 220 209 203 202 199 197 190 194 193 195 192 192 186 187 195 195 198 196 193 189 190 189 190 186 201 201 193 181 175 179 184 181 183
211 194 201 185 187 193 198 210 198 187 195 213 206 199 199 196 192 195 191 193 189 193 195 192 186 187 196 196 190 189 189 185 188 192 185 186 185 184 173 178 178 180 188 182
215 199 195 185 200 189 182 199 196 206 211 206 204 198 194 196 195 195 190 194 188 188 192 195 193 184 193 195 189 190 189 191 193 194 190 190 190 187 185 184 179 190 193 186
213 206 195 202 188 192 200 192 209 201 199 201 207 202 199 193 191 195 193 187 194 187 196 190 194 193 194 193 193 189 189 186 193 195 204 205 208 210 202 210 214 183 178 182
206 197 188 194 180 192 186 200 197 207 200 197 196 204 199 199 194 192 194 194 194 187 182 187 194 195 197 194 197 192 186 193 189 192 193 194 193 197 202 200 173 180 177 180
189 196 202 198 193 197 185 195 181 194 187 189 189 197 199 211 208 201 190 193 193 185 181 183 186 187 191 194 194 195 194 191 191 191 200 198 207 196 195 184 187 178 167 175
193 187 195 205 189 198 196 177 202 189 187 193 195 200 187 201 211 210 200 194 191 190 183 187 183 185 188 191 187 192 195 199 193 206 196 141 195 187 187 176 178 177 168 170
188 205 195 208 190 201 191 190 192 188 185 188 188 186 198 189 197 202 205 202 206 199 188 179 182 182 195 188 188 199 194 202 200 214 198 189 175 185 179 192 92 183 183 178
200 186 201 202 185 193 195 188 193 201 195 199 197 195 189 196 196 196 194 196 203 209 211 185 188 186 192 186 194 195 196 190 199 217 189 174 177 171 191 167 187 181 177 177
204 217 208 225 208 207 199 192 191 190 194 196 200 199 197 199 193 195 195 199 200 207 211 199 184 187 193 190 186 200 183 209 167 120 169 127 149 183 187 191 183 180 186 192
213 211 208 191 197 211 197 199 204 200 199 199 194 211 200 199 198 199 198 201 199 207 212 201 193 190 186 191 194 189 198 97 221 76 184 135 185 185 171 181 179 200 193 191
216 216 214 176 182 199 200 195 200 207 208 208 202 199 192 191 195 195 199 199 200 207 213 190 192 189 190 185 198 191 196 213 192 189 180 181 170 191 102 199 204 191 198 199
206 204 186 214 210 215 171 211 212 201 202 203 197 199 200 204 209 206 213 217 222 209 209 189 189 189 191 192 193 198 194 185 183 170 175 169 187 195 195 199 193 189 195 203
196 203 199 206 184 184 192 215 205 208 212 215 207 210 208 209 204 204 211 222 220 217 197 190 197 196 194 205 184 165 192 183 176 184 188 192 196 201 200 204 189 200 204 206
193 197 196 200 201 195 205 213 223 194 218 199 213 210 214 192 196 201 200 207 205 200 202 197 199 168 203 171 178 188 198 189 177 187 197 197 193 199 205 192 207 206 203 218
198 188 197 191 189 184 191 190 193 210 247 206 183 189 197 201 203 201 201 200 179 213 207 202 208 184 193 194 188 187 179 195 192 196 193 195 193 201 194 203 207 208 217 211
197 194 203 189 190 193 187 185 189 186 187 197 196 187 201 206 198 196 194 102 186 190 205 194 187 187 190 176 172 188 196 197 191 197 196 194 207 211 203 202 211 212 212 220
203 202 193 195 192 196 198 192 192 195 198 189 183 189 187 194 193 132 90 186 189 197 194 198 197 177 191 189 185 191 196 201 198 195 201 205 212 208 202 212 211 219 229 229
199 200 201 199 192 192 192 192 198 200 194 184 192 199 185 186 190 194 198 206 193 167 195 194 198 197 198 199 197 202 192 190 201 204 218 216 214 210 210 214 223 231 228 243
213 209 212 211 203 201 204 206 201 192 192 193 188 190 192 196 198 200 205 206 207 206 204 206 208 207 207 209 207 192 192 203 214 214 213 213 211 220 218 227 228 233 234 231
205 204 205 208 208 201 204 206 209 208 202 197 198 193 196 192 192 194 193 199 199 210 207 205 199 197 205 206 211 209 212 216 214 218 212 215 225 234 229 237 230 238 236 234
225 216 212 219 220 216 219 214 204 201 204 208 203 195 196 195 197 191 199 199 201 201 212 196 201 201 209 212 208 212 221 213 218 209 217 223 234 236 234 226 233 237 287 267
219 220 223 221 213 229 227 219 218 215 206 205 204 207 210 207 208 210 211 200 198 204 206 211 214 217 214 203 211 220 217 223 214 217 243 248 218 247 254 226 280 165 264 277
223 210 215 222 219 222 222 222 217 214 221 218 217 218 220 219 222 226 229 230 231 226 221 210 216 221 222 227 229 225 231 226 242 228 261 223 239 241 259 269 209 280 286 286
229 227 222 220 223 224 223 213 212 220 225 227 219 219 217 218 222 226 231 227 226 228 228 226 225 231 231 244 242 247 249 240 260 271 251 240 257 265 265 282 280 289 299 308
261 242 238 237 235 233 231 184 227 239 242 242 243 235 239 249 219 226 229 227 222 228 232 237 234 238 251 249 242 265 269 250 259 253 250 262 267 275 284 289 313 302 305 314